Aérodrome :
LOGIN :

S'inscrire | Disclaimer

   EN    FR    IT 

 










Légende :    VFR   VFR Marginal   IFR   IFR Intensif   IFR Très Intensif
Visi : 
Plafond : 
>= 8 km
>= 3000ft
5 à 8 km
1000 à 3000 ft
1500m à 5 km
500 à 1000 ft
800 à 1500m
200 à 500 ft
< 800m
< 200 ft
Symboles :   Orages  Brouillard  Fortes neiges  Fortes précipitations  Vent > 20 kt
SIGMETs :   Divers  Orages  Givrage  Turbulence  Onde Orograph.  Cendres Volcan.







- Altitude de l'aérodrome : 1674 ft
- Code IATA : BRN


LSZB - Bern Belp

DERNIER METAR :
  • 180250Z AUTO VRB02KT 3000 R14/0800U -SN BKN/// 00/M00 Q1016

METARs EXPIRÉS :
  • 180220Z AUTO 35003KT 320V030 6000 -SN BKN/// 00/M00 Q1016
  • 180150Z AUTO 31006KT 6000 -SN BKN/// 01/M00 Q1016
  • 180120Z AUTO 31008KT 3400 -SN BKN/// 01/M00 Q1015
  • 180050Z AUTO 33005KT 9999 FEW023 03/M02 Q1015
  • 180020Z AUTO 01003KT 290V060 9999 OVC050 02/M03 Q1015

Prévision TAF périmée.
ATIS : +41 22 417 40 76
Pas de NOTAMs connus pour ce terrain.



MET'MAP, la Météo Aéronautique d'un coup d'oeil ! - Copyright ORBIFLY Décembre 2007 - Disclaimer

ORBIFLY MET'MAP TEAM :

Programmation & Développement : Alexandra Zaïnal
Conception & Développement : Baudouin d'Aumeries
Co-Programmation & Développement : Marc-Olivier Méhu
Soutien technique & logistique : Manuel Goepfert

Contact : metmap@orbifly.com




SOURCES & CREDITS :

   NOAA